MDT,Max TemperatureF,Mean TemperatureF,Min TemperatureF,Max Dew PointF,MeanDew PointF,Min DewpointF,Max Humidity, Mean Humidity, Min Humidity, Max Sea Level PressureIn, Mean Sea Level PressureIn, Min Sea Level PressureIn, Max VisibilityMiles, Mean VisibilityMiles, Min VisibilityMiles, Max Wind SpeedMPH, Mean Wind SpeedMPH, Max Gust SpeedMPH,PrecipitationIn, CloudCover, Events, WindDirDegrees
2012-10-1,73,55,37,32,29,27,70,46,19,30.40,30.28,30.12,10,10,5,13,4,,0.00,1,,110
2012-10-2,77,56,35,28,27,23,75,44,14,30.27,30.16,30.02,10,10,10,10,3,21,0.00,0,,122
2012-10-3,73,54,35,27,24,16,70,39,13,30.15,30.09,29.99,10,10,10,30,5,45,0.00,2,,137
2012-10-4,71,55,39,21,18,14,45,30,13,30.19,30.12,30.01,10,10,10,32,5,39,0.00,3,,162
2012-10-5,64,58,53,57,19,7,88,25,10,30.11,30.03,29.98,10,10,10,23,11,33,0.00,3,,251
2012-10-6,55,44,32,10,5,0,41,21,10,30.21,30.12,30.05,10,10,10,10,6,18,0.00,1,,38
2012-10-7,57,40,24,12,5,0,54,27,11,30.21,30.14,30.06,10,10,10,15,3,29,0.00,1,,127
2012-10-8,64,42,19,9,5,0,58,31,7,30.20,30.11,29.98,10,10,10,23,4,32,0.00,0,,131
2012-10-9,69,48,28,18,14,9,51,31,13,30.14,30.08,30.00,10,10,10,25,7,33,0.00,0,,125
2012-10-10,71,50,30,28,22,16,64,39,17,30.23,30.14,30.04,10,10,10,23,3,29,0.00,1,,109
2012-10-11,73,53,33,28,26,25,70,44,16,30.20,30.12,30.05,10,10,10,13,3,18,0.00,1,,115
2012-10-12,62,50,39,45,33,25,100,62,31,30.13,30.09,29.98,10,10,7,18,5,29,0.03,3,Rain-Thunderstorm,105
2012-10-13,48,42,37,43,38,27,100,87,61,30.30,30.13,30.06,10,10,6,12,2,17,0.00,7,Rain,151
2012-10-14,60,46,33,43,37,30,100,79,31,30.42,30.34,30.29,10,10,10,14,2,18,0.00,1,,110
2012-10-15,66,48,30,34,29,19,100,53,17,30.34,30.17,30.07,10,10,10,23,5,29,0.00,0,,150
2012-10-16,68,50,32,43,32,28,93,61,24,30.15,29.98,29.76,10,10,6,23,6,47,0.07,3,,225
2012-10-17,53,44,35,43,22,1,100,53,12,30.14,29.99,29.88,10,10,10,23,8,31,0.00,1,,201
2012-10-18,60,42,24,21,17,10,80,47,15,30.29,30.22,30.15,10,10,10,17,4,24,0.00,0,,106
2012-10-19,66,45,24,25,20,16,80,50,14,30.28,30.17,30.02,10,10,10,26,4,33,0.00,0,,154
2012-10-20,71,50,28,23,21,18,74,43,13,30.09,29.97,29.82,10,10,10,18,4,28,0.00,1,,118
2012-10-21,69,50,30,27,22,19,69,44,16,29.97,29.92,29.85,10,10,10,20,5,33,0.00,0,,125
2012-10-22,66,50,33,28,27,21,75,47,18,29.98,29.91,29.82,10,10,10,24,5,34,0.00,0,,217
2012-10-23,64,58,53,30,24,16,41,28,15,29.87,29.83,29.80,10,10,10,30,15,39,0.00,1,,237
2012-10-24,60,50,37,37,25,10,93,39,16,29.88,29.80,29.72,10,9,5,25,14,38,0.00,6,Rain,228
2012-10-25,41,34,26,28,25,16,93,80,39,30.24,30.15,30.05,10,10,8,22,5,30,0.00,4,,240
2012-10-26,41,28,15,23,18,7,93,73,26,30.42,30.28,30.17,10,10,10,14,4,22,0.00,1,,99
2012-10-27,48,38,28,23,19,12,80,58,24,30.22,30.18,30.12,10,10,10,23,5,30,0.00,5,,99
2012-10-28,59,46,33,28,24,19,65,54,27,30.25,30.20,30.12,10,10,10,17,6,23,0.00,5,,92
2012-10-29,62,45,28,28,26,21,93,63,20,30.32,30.27,30.18,10,10,10,21,4,29,0.00,1,,108
2012-10-30,64,44,24,27,25,23,93,60,21,30.36,30.27,30.17,10,10,10,9,1,,0.00,0,,115
2012-10-31,64,45,26,25,23,21,86,60,19,30.36,30.27,30.17,10,10,10,7,2,,0.00,0,,99